200 serials | coreldraw 14 serial

Date Name Success Rate
2009-10-17 06:18:35 AliveDVDRipper Serial By AT4RE 48%
2009-10-17 06:18:44 Ancestral Author 24 SERIAL 58%
2009-10-17 06:18:52 AquaFish2.3D SERIAL 50%
2009-10-17 06:18:52 AquaScreen2.3D SERIAL 58%
2009-10-17 06:19:28 BD Gest 5.2.2 SERIAL 54%
2009-10-17 06:20:07 Cats ScreenSaver 1.2 A SERIAL 13%
2009-10-17 06:20:25 CleanMantra Ver 1.5 SERIAL 57%
2009-10-17 06:20:39 CorelDRAW Design Collection Volume 1 48%
2009-10-17 06:20:39 CorelDRAW Design Collection Volume 2 23%
2009-10-17 06:20:39 CorelDRAW Design Collection Volume 3 12%
2009-10-17 06:20:39 CorelDRAW Essentials 3 V13.0.0.800 KeyMaker 62%
2009-10-17 06:20:39 CorelDRAW Graphics Suite V12 57%
2009-10-17 06:20:39 CorelDraw Graphics Suite V12 CZECH 21%
2009-10-17 06:20:39 CorelDRAW Graphics Suite X4 V14.0.0.567 79%
2009-10-17 06:22:10 E-Paint V2.0a 14 12%
2009-10-17 06:22:55 Faune Maldivienne SERIAL 11%
2009-10-17 06:23:00 FishPond SERIAL 24%
2009-10-17 06:23:45 Goleador 5.1 SERIAL 40%
2009-10-17 06:25:01 II WorkProjectPro V2.32 SERIAL 0%
2009-10-17 06:25:11 IncrediZoom 10 SERIAL 30%
2009-10-17 06:27:46 Magic 3D 2.1 SERIAL 52%
2009-10-17 06:27:46 MagicTweak 2.90 SOME-SERIAL 59%
2009-10-17 06:27:51 MathWorks Products Release 14 SP1 0%
2009-10-17 06:28:08 MURENES SERIAL 33%
2009-10-17 06:28:08 Mutilate File Wiper V2.94 Build 14 Inc Serial By AT4RE 0%
2009-10-17 06:29:58 Palette V3.2 SERIAL 0%
2009-10-17 06:30:07 Picturecollagesoftware SERIAL 51%
2009-10-17 06:31:33 REQUINS SERIAL 9%
2009-10-17 06:32:11 ScanToPDF 3.13 SERIAL 35%
2009-10-17 06:32:15 Sdss Meduse 3D SERIAL 0%
2009-10-17 06:33:27 TORTUES SERIAL 0%
2009-10-17 06:36:26 X-Ways WinHex V12.9 SR-14 0%
2009-10-22 23:27:26 Auto Cad 14 173%
2009-10-22 23:27:26 Auto CAD Release 14 0%
2009-10-22 23:27:26 Autocad 14 66%
2009-10-22 23:27:26 Autocad Release 14 0%
2009-10-22 23:27:26 Autodesk Autocadr 14 0%
2009-10-22 23:44:51 BRD Serial 62%
2009-10-22 23:45:56 Corel 14 60%
2009-10-22 23:45:56 CorelDraw X4 53%
2009-10-22 23:45:56 CorelDRAW 10 100%
2009-10-22 23:45:56 CorelDraw 10 Graphics Suite 0%
2009-10-22 23:45:56 CorelDRAW 12 60%
2009-10-22 23:45:56 CorelDraw 4 0%
2009-10-22 23:45:56 CORELDRAW 9 0%
2009-10-22 23:45:56 CorelDraw Design Collection Volumen 3 0%
2009-10-22 23:45:56 CorelDRAW ESSENTIALS 0%
2009-10-22 23:45:56 CorelDRAW Essentials 3.v13.0.0.800 67%
2009-10-22 23:45:56 CorelDRAW Essentials Italian 2.0 0%
2009-10-22 23:45:56 CorelDRAW Graphic Suite X4 0%
2009-10-22 23:45:56 CorelDraw Graphics Suite 11 0%
2009-10-22 23:45:56 CorelDRAW Graphics Suite 12 0%
2009-10-22 23:45:56 CorelDRAW Graphics Suite X3 65%
2009-10-22 23:45:56 CorelDRAW Graphics Suite X3 13 0%
2009-10-22 23:45:56 CorelDRAW Graphics Suite X3 ALL 53%
2009-10-22 23:45:56 CorelDRAW Graphics Suite X3 V.13 Multilenguaje 0%
2009-10-22 23:45:56 CorelDRAW Graphics Suite X3 V13 79%
2009-10-22 23:45:56 Coreldraw Graphics Suite X3 V13.0 0%
2009-10-22 23:45:56 CorelDRAW Graphics Suite X3.v13.0 53%
2009-10-22 23:45:56 CorelDRAW Graphics Suite X4 80%
2009-10-22 23:45:56 CorelDRAW Graphics Suite X4.SP2.v14.0.0.701 80%
2009-10-22 23:45:56 CorelDRAW Graphics Suite X4.v14.0.0.567 56%
2009-10-22 23:45:56 CorelDRAW Graphics Suite X4CorelDRAW Graphics Suite X4 57%
2009-10-22 23:45:56 CorelDRAW Graphics Suite.X3.v13.0. 0%
2009-10-22 23:45:56 CorelDRAW Graphics Suite12 67%
2009-10-22 23:45:56 Coreldraw V4.0 NL For Windows 0%
2009-10-22 23:45:56 CorelDRAW X3 71%
2009-10-22 23:45:56 CORELDRAW X4 100%
2009-10-22 23:47:39 E-Paint 2.0a.14 0%
2009-10-22 23:47:59 Gangland Serial 0%
2009-10-22 23:48:16 Infomapa 14 0%
2009-10-22 23:48:46 MatLab Sn Version_7 Release 14 0%
2009-10-22 23:48:49 Microsoft Money 2007 Serial 10%
2009-10-22 23:48:53 Mutilate File Wiper V2.94.build 14 0%
2009-10-22 23:48:59 Nero Gost 14 0%
2009-10-22 23:49:01 Nod32 Serial . Update !!! 0%
2009-10-22 23:49:12 Omni Page Pro 14 0%
2009-10-22 23:49:12 OmniPage 14 0%
2009-10-22 23:49:12 Omnipage Pro 14 0%
2009-10-22 23:49:12 OmniPage Pro 14 Office 0%
2009-10-22 23:49:12 OmniPage Pro Office 14 0%
2009-10-22 23:49:20 PC Miler 14 0%
2009-10-22 23:49:22 Photoshop CS2 Serial 46%
2009-10-22 23:49:23 Pinnacle Studio 9.3 - All In One (serial+14 By Other Key) 83%
2009-10-22 23:49:42 Regcure Serial 39%
2009-10-22 23:49:51 Scansoft Omnipage Pro 14 Office 0%
2009-10-22 23:49:52 Serial Quark Xpress 7.02 0%
2009-10-22 23:49:55 Solid Edge Version 14 Academica 0%
2009-10-22 23:49:56 SolSuite 2003 V.14 X 0%
2009-10-22 23:49:59 SPSS 14 100%
2009-10-22 23:50:01 Suit Grafica CorelDRAW 12 0%
2009-10-22 23:50:13 TuneUp 2009 Serial (Punkcracks) 100%
2009-10-22 23:50:19 UltraEdit 14.xx 0%
2009-10-22 23:50:39 WOW 14-Days 0%
2009-10-22 23:50:45 X-Ways WinHex V12.9 SR-14 0%
2011-09-08 09:45:36 12 Ghosts HiSpirit XP 14 0%
2011-09-08 10:00:30 Adobe Illustrator CS4 CS4 (14) 53%
2011-09-08 10:08:02 ARCHITECTURAL DESKTOP FOR AUTOCAD 14 2 0%
2011-09-08 10:09:50 Audio Editing Lab 14 0%
2011-09-08 10:11:45 AutoCad 14 69%
2011-09-08 10:11:45 AutoCAD 14 for Win95 CD Key 0%
2011-09-08 10:11:47 Autocad Release 14 0%
2011-09-08 10:11:50 Autodesk autocadr 14 0%
2011-09-08 10:19:50 Billing-explorer versi v4.40 R-14 0%
2011-09-08 10:27:00 ClockTick v3.0.0 Beta 14 0%
2011-09-08 10:27:10 CloneCD 4.0.0.0 Build 14 0%
2011-09-08 10:31:39 coreldraw (r) graphics suite 11 0%
2011-09-08 10:31:39 CorelDraw 10 0%
2011-09-08 10:31:39 CorelDraw 10 Graphics Suite 0%
2011-09-08 10:31:39 CorelDraw 10.0 0%
2011-09-08 10:31:39 CorelDraw 11 60%
2011-09-08 10:31:39 CorelDraw 12 0%
2011-09-08 10:31:39 Coreldraw 12 new 0%
2011-09-08 10:31:39 CorelDraw 4.0 NL 0%
2011-09-08 10:31:39 CorelDraw 5.0 20%
2011-09-08 10:31:39 CORELDRAW 9 0%
2011-09-08 10:31:39 CorelDraw Essentials 0%
2011-09-08 10:31:39 CorelDRAW Essentials Italian 2.0 0%
2011-09-08 10:31:39 CorelDRAW Essentials Italian v1.0 0%
2011-09-08 10:31:39 CorelDraw Graphics Suite 11 37%
2011-09-08 10:31:39 CorelDRAW Graphics Suite 12 100%
2011-09-08 10:31:39 CorelDRAW Graphics Suite 12 12 0%
2011-09-08 10:31:39 CorelDRAW Graphics Suite 12 new 0%
2011-09-08 10:31:39 CorelDRAW Graphics Suite v12 0%
2011-09-08 10:31:39 CorelDRAW Graphics Suite v12 by Bidjan 0%
2011-09-08 10:31:39 CorelDRAW Graphics Suite12 0%
2011-09-08 10:31:39 CorelDRAW v12 0%
2011-09-08 10:31:39 Coreldraw v4.0 NL for Windows 0%
2011-09-08 10:31:39 Coreldraw v5.0 for Windows 50%
2011-09-08 10:31:39 Coreldraw v5.0 rev. E2 for Windows 0%
2011-09-08 10:31:39 CorelDraw v8.0 Code 67%
2011-09-08 10:31:39 coreldraw x3 graphics suite 13.0.0.576 68%
2011-09-08 10:46:40 E-Paint 2.0a.14 0%
2011-09-08 10:47:32 Easycad Ref B 14 0%
2011-09-08 10:48:57 EKA v3.0 Jan-14-2002 0%
2011-09-08 10:51:02 EZMetrics for CorelDRAW v12 0%
2011-09-08 10:54:38 FileRevival v1.2 march-14-2003 0%
2011-09-08 11:02:36 Ghost 14 100%
2011-09-08 11:06:18 HazShipper 14 0%
2011-09-08 11:06:33 Hex WorkShop Serial Number 58%
2011-09-08 11:29:48 MathWorks Release 14 50%
2011-09-08 11:29:50 Matlab 7 Release 14 85%
2011-09-08 11:31:26 Microsoft Office 2010 Professional Plus 14 60%
2011-09-08 11:43:25 NovaBACKUP Business Essentials 11.1 Build 14 0%
2011-09-08 11:43:25 NovaBACKUP Professional 11.1 Build 14 0%
2011-09-08 12:26:38 Olms v2.0 14 0%
2011-09-08 12:26:38 Omni Page Pro 14 0%
2011-09-08 12:26:42 Omnipage 14 0%
2011-09-08 12:26:42 Omnipage Pro 14 0%
2011-09-08 12:26:42 OmniPage Pro Office 14 0%
2011-09-08 12:28:05 Paper Direct Templates for CorelDraw 5.0 0%
2011-09-08 12:28:05 Paper Direct Templates for CorelDraw v5.0 0%
2011-09-08 12:28:05 Paper Direct Templates v5.0 for CorelDraw Win 0%
2011-09-08 12:28:05 Paper Direct Templates v5.0 for CorelDraw Windows 0%
2011-09-08 12:28:05 Paper Direct Templates v50 for CorelDraw Windows 0%
2011-09-08 12:28:57 PC Express v1.0 14 0%
2011-09-08 12:38:13 Printer's Appendice v6.5a beta#14 0%
2011-09-08 12:38:13 Printer's Apprentice 6.5a beta #14 0%
2011-09-08 12:40:34 RCN Issue #14 secret articles pwrd 0%
2011-09-08 12:46:28 SecuriDesign for CorelDRAW 12 1 0%
2011-09-08 12:46:28 SecuriDesign v1 for CorelDRAW v12 0%
2011-09-08 12:46:52 Serial Box 0.6.1 0%
2011-09-08 12:46:52 Serial Link v1.0 64%
2011-09-08 12:46:52 Serial Splitter 0%
2011-09-08 12:46:52 Serial Splitter v2.0.526 0%
2011-09-08 12:50:01 SolSuite 2003 v.14 x 0%
2011-09-08 12:52:43 TextBridge ProV9.02 04/14/99-108-3.0tt-12.1j 0%
2011-09-08 13:12:19 Virtus WalkThrough 14 0%
2011-09-08 13:18:19 Windows 95 OEM Version 14 0%
2012-12-11 23:18:00 Acdsee 14 0%
2012-12-12 02:09:25 Archi cad 14 58%
2012-12-12 02:21:30 ASDCee Canvas 14 23%
2012-12-12 02:38:05 ATA serial 0%
2012-12-12 03:11:50 Avast 6 serial workstate 0%
2012-12-12 03:15:56 Avast Serial Key 70%
2012-12-12 03:59:50 BFH Serial 0%
2012-12-12 04:13:49 Bioshock Serial 34%
2012-12-12 06:38:04 CorelDraw Grafic Suite4 0%
2012-12-12 06:38:06 CorelDraw Graphics Suite X4 [PL] 12%
2012-12-12 06:38:07 CorelDRAW Graphics Suite X5 0%
2012-12-12 06:38:07 CorelDRAW Graphics Suite X5 by Picklu_updatefailed 0%
2012-12-12 06:38:08 CorelDRAW Graphics Suite X5.SP3.v15.2.0.686 0%
2012-12-12 06:38:08 CorelDRAW Graphics Suite X5.v15.0.0.486 100%
2012-12-12 06:38:08 CorelDRAW Graphics Suite X6 35%
2012-12-12 06:38:08 CorelDRAW Graphics Suite X6 2012 20%
2012-12-12 06:38:08 CorelDRAW Graphics Suite X6.v16.0.0.707 20%
2012-12-12 06:38:09 CorelDRAW Graphics Suite X6.v16.1.0.843 56%
2012-12-12 06:38:09 CorelDRAW Video Studio Pro X3.v13.6.0.367 0%
2012-12-12 06:38:10 CorelDRAW X5 20%
2012-12-12 07:27:40 Design CAD 3D Max 14 53%
2012-12-12 11:23:56 Ezypage 14 0%
2012-12-12 14:49:47 Idman605 build 14 80%
2012-12-12 15:46:46 Internet Download Manager 6.05 build 14 63%
2012-12-12 16:06:11 IVT.BlueSoleil.6 serial 51%
2012-12-12 18:39:48 Mathcad 14 0%
2012-12-12 23:00:36 NovaBACKUP Pro 11.1 build 14 0%
2012-12-12 23:00:38 NovaBACKUP Server Edition 11.1 build 14 0%
2012-12-12 23:12:44 O & O Defrag 14 0%
2012-12-12 23:14:14 o&o defrag 14 0%
2012-12-12 23:14:38 O&O Defrag Pro 14 0%